This is the latest recevied weather packets stored in our database for station/object AK4NG. If no packets are shown the sender has not sent any weather packets the latest 10 day(s).
| Time | Temp. | Humidity | Pressure | Rain* | Wind** | Luminosity | Snow |
|---|---|---|---|---|---|---|---|
| 1777729299 | 13.33° C | 99% | 1014.1 hPa | 0 mm | - | 238 W/m² | - |
| 1777728996 | 13.33° C | 99% | 1013.9 hPa | 0 mm | - | 216 W/m² | - |
| 1777728693 | 13.33° C | 99% | 1014.1 hPa | 0 mm | - | 150 W/m² | - |
| 1777728389 | 13.33° C | 99% | 1014.2 hPa | 0 mm | - | 149 W/m² | - |
| 1777728087 | 12.78° C | 99% | 1014.2 hPa | 0 mm | - | 93 W/m² | - |
| 1777727784 | 12.78° C | 99% | 1014 hPa | 1.27 mm | - | 123 W/m² | - |
| 1777727481 | 12.78° C | 99% | 1014 hPa | 1.27 mm | - | 138 W/m² | - |
| 1777727178 | 12.78° C | 99% | 1014.3 hPa | 1.27 mm | - | 119 W/m² | - |
| 1777726876 | 12.78° C | 99% | 1014.2 hPa | 0 mm | - | 83 W/m² | - |
| 1777726571 | 12.78° C | 99% | 1014.1 hPa | 1.78 mm | - | 61 W/m² | - |
| 1777726269 | 12.22° C | 99% | 1014.1 hPa | 1.78 mm | - | 67 W/m² | - |
| 1777725966 | 12.22° C | 99% | 1013.5 hPa | 0 mm | - | 43 W/m² | - |
| 1777725663 | 12.22° C | 99% | 1013.6 hPa | 0 mm | - | 43 W/m² | - |
| 1777725361 | 12.22° C | 99% | 1013.3 hPa | 1.27 mm | - | 35 W/m² | - |
| 1777725057 | 12.22° C | 99% | 1013.2 hPa | 1.27 mm | - | 38 W/m² | - |
| 1777724754 | 12.22° C | 99% | 1013.7 hPa | 1.78 mm | - | 30 W/m² | - |
| 1777724452 | 12.22° C | 99% | 1013.9 hPa | 3.05 mm | - | 30 W/m² | - |
| 1777724149 | 12.22° C | 99% | 1013.7 hPa | 4.83 mm | - | 35 W/m² | - |
| 1777723846 | 12.22° C | 99% | 1013.9 hPa | 3.05 mm | - | 32 W/m² | - |
| 1777723542 | 12.22° C | 99% | 1014 hPa | 1.78 mm | - | 22 W/m² | - |
| 1777723240 | 12.22° C | 99% | 1013.7 hPa | 0 mm | - | 16 W/m² | - |
| 1777722938 | 12.22° C | 99% | 1013.5 hPa | 0 mm | - | 20 W/m² | - |
| 1777722633 | 12.22° C | 99% | 1012.8 hPa | 0 mm | - | 30 W/m² | - |
| 1777722330 | 11.67° C | 99% | 1012.9 hPa | 0 mm | - | 28 W/m² | - |
| 1777722027 | 11.67° C | 99% | 1013.4 hPa | 0 mm | - | 20 W/m² | - |
* Rain latest hour (hover to see other rain measurements)
** Current wind speed in m/s (hover to see current wind gust speed)